EHI
71 62 57 46 24 8 2 0 0 0 0 0 0 0 0 0 0 0 0 0 0 0 0 0 0 0 0 0 0 0 0 0 0 0 0 0 0 0 0 0 0 0 0
69 55 49 41 22 8 2 0 0 0 0 0 0 0 0 0 0 0 0 0 0 0 0 0 0 0 0 0 0 0 0 0 0 0 0 0 0 0 0 0 0 0 0
55 39 32 29 18 9 4 2 1 0 0 0 0 0 0 0 0 0 0 0 0 0 0 0 0 0 0 0 0 0 0 0 0 0 0 0 0 0 0 0 0 0 0
32 21 16 16 12 8 6 5 3 2 1 1 2 2 1 1 0 0 0 0 0 0 0 0 0 0 0 0 0 0 0 0 0 0 0 0 0 0 0 0 0 0 0
23 19 15 12 9 7 6 6 5 4 3 2 3 4 3 2 1 0 0 0 0 0 0 0 0 0 0 0 0 0 0 0 0 0 0 0 0 0 0 0 0 0 0
32 29 24 17 9 5 4 4 4 4 4 4 4 5 5 3 1 0 0 0 0 0 1 1 0 0 0 0 0 0 0 0 0 0 1 2 3 2 0 0 0 0 0
47 42 33 24 13 5 3 2 2 2 2 3 3 4 4 2 0 0 0 0 1 2 4 3 1 0 0 0 0 0 0 0 0 0 3 11 15 9 3 0 0 0 0
65 55 38 25 15 5 2 2 1 1 1 1 2 3 3 2 0 0 1 2 4 8 11 11 6 2 1 1 1 0 0 0 0 0 8 27 38 28 12 4 0 0 0
74 60 34 17 11 4 1 1 1 2 3 2 1 1 1 1 1 1 4 7 11 16 21 19 13 7 5 5 3 1 0 0 0 0 11 41 63 55 33 14 4 1 0
61 51 28 15 10 5 6 9 8 7 7 4 2 2 3 2 2 3 7 13 22 29 30 27 22 19 17 12 7 4 2 0 0 0 12 45 76 78 56 32 13 3 1
39 36 30 27 22 14 19 28 23 16 15 11 9 11 10 6 3 5 15 29 41 45 43 37 35 35 31 19 10 8 6 2 0 0 13 49 82 87 72 49 25 9 3
30 33 37 42 42 35 40 47 36 25 28 26 22 26 28 21 14 14 31 55 65 62 57 52 49 47 38 22 16 17 11 3 0 1 19 58 85 87 76 58 37 18 7
42 45 49 56 62 61 62 61 46 37 42 44 39 43 49 45 36 33 49 74 82 75 67 62 58 51 37 25 26 28 16 3 0 4 26 64 84 82 74 61 45 27 15
64 65 67 71 76 75 71 65 56 51 53 55 54 56 61 62 55 52 60 75 82 78 69 62 59 51 38 29 30 33 24 9 3 7 29 59 74 74 68 56 42 29 22
81 80 79 77 75 71 66 61 59 61 59 58 60 62 63 65 63 59 59 62 65 64 60 53 48 44 39 33 30 32 30 20 12 11 25 45 57 61 57 45 31 23 20
81 80 77 69 63 62 60 60 60 58 56 55 59 62 60 59 58 55 51 49 47 45 42 39 33 32 34 33 29 28 29 27 24 20 23 34 44 45 42 34 23 18 16
68 70 66 56 52 55 57 58 55 50 46 48 51 55 54 48 45 44 43 41 39 34 29 25 23 23 24 25 25 23 24 28 29 27 26 31 35 31 25 22 19 18 17
54 57 54 46 43 44 43 42 38 35 35 35 38 41 41 37 31 31 34 35 32 28 21 17 16 16 16 17 18 18 20 24 25 23 23 24 24 20 14 12 14 16 17
39 41 39 35 31 27 22 20 19 20 22 25 27 28 27 24 20 20 23 25 23 19 14 10 10 11 10 11 12 11 13 16 16 14 13 15 15 13 10 8 8 10 11
20 21 21 20 19 14 9 7 8 10 14 16 20 20 16 12 11 10 11 13 13 11 7 5 5 6 6 6 6 6 7 8 9 8 7 8 9 9 7 6 6 5 4
7 7 6 7 8 7 5 4 4 6 8 10 12 11 7 4 4 4 4 6 7 5 3 1 1 2 2 3 3 3 3 3 3 4 4 4 5 5 4 5 7 7 5
1 1 1 1 3 4 3 2 1 1 2 4 5 5 2 1 1 1 3 4 4 2 1 0 0 0 1 1 1 2 2 1 1 1 2 2 1 2 2 4 8 11 10
0 0 1 3 4 6 4 1 0 0 0 1 1 1 1 0 0 0 1 3 3 1 0 0 0 0 0 0 0 1 1 0 0 0 1 0 0 0 1 2 8 12 12
0 0 3 8 11 9 5 1 0 0 0 0 0 0 0 0 0 0 0 1 1 1 0 1 1 1 0 0 0 0 0 0 0 0 0 0 0 0 0 1 5 10 12
0 0 4 11 14 11 6 2 0 0 0 0 0 0 0 0 0 0 0 0 0 0 0 1 2 2 1 0 0 0 0 0 0 0 0 0 0 0 0 0 2 6 10
0 0 3 9 13 11 7 3 1 0 0 0 0 0 0 0 0 0 0 0 0 0 0 1 2 2 1 0 0 0 0 0 0 0 0 0 0 0 0 1 2 5 7
Wind_Speed
18 18 18 16 14 12 10 9 10 11 11 11 11 10 10 9 9 9 10 10 10 9 9 9 8 7 7 7 8 9 9 10 11 12 13 13 11 10 9 8 10 12 14
21 18 17 16 14 12 11 10 9 11 11 11 10 10 10 9 9 9 9 8 8 8 8 8 8 8 8 8 8 8 8 8 8 9 11 11 11 9 8 7 10 11 14
20 18 17 15 14 12 11 10 9 10 11 11 11 10 10 10 9 9 8 8 7 7 8 8 8 8 8 8 7 7 7 6 6 7 8 8 9 9 10 13 16 14 13
20 17 15 16 14 12 11 10 10 10 10 11 11 11 10 10 9 9 8 8 7 7 7 8 8 8 7 7 7 6 6 5 5 5 5 5 9 11 10 11 12 12 12
18 16 17 17 15 13 11 10 10 10 10 10 11 10 10 10 9 9 8 8 7 7 7 8 8 8 7 7 7 6 5 5 5 7 4 5 9 11 11 10 10 11 11
18 17 17 16 15 13 12 10 9 9 9 9 10 10 10 9 9 9 8 8 8 8 8 8 8 8 8 7 7 6 6 6 6 7 4 6 9 11 11 10 9 10 9
18 17 17 16 14 13 12 10 9 9 8 8 8 8 8 8 9 9 9 9 9 8 9 8 9 9 9 8 8 7 7 7 8 6 3 7 10 13 12 10 9 9 8
19 18 15 15 14 12 11 10 9 8 8 8 8 8 8 8 9 9 9 10 10 10 10 10 10 10 10 10 9 8 8 9 9 8 5 8 15 15 13 11 9 9 9
19 18 14 13 12 11 10 10 9 9 8 8 8 8 8 9 10 10 10 11 11 11 10 11 11 11 11 11 11 10 10 11 9 7 6 8 17 17 15 13 11 10 10
15 17 14 14 12 11 10 11 11 10 9 9 9 9 10 10 11 12 11 12 13 13 12 12 12 12 12 11 12 12 11 10 9 10 5 9 20 19 17 15 13 12 12
9 12 10 12 12 10 11 13 12 11 11 10 10 12 11 9 11 11 15 15 17 16 15 14 14 13 12 13 14 13 11 7 10 8 6 13 21 20 19 17 14 13 13
7 7 6 6 7 5 4 8 7 8 9 9 8 10 9 8 8 10 13 20 20 18 17 16 15 14 12 9 13 15 8 10 10 7 5 17 20 19 19 17 15 14 14
7 6 7 6 6 5 3 3 1 2 4 8 9 7 6 6 6 7 4 9 12 14 11 11 12 10 10 8 7 9 10 9 7 6 6 19 19 19 19 17 16 15 14
9 10 9 9 8 7 6 4 2 2 1 2 4 5 4 3 5 4 3 3 5 6 8 8 7 10 10 10 9 9 11 8 6 4 6 17 18 18 18 17 16 15 15
12 11 10 9 8 6 5 4 5 4 4 4 2 2 3 3 4 5 4 4 4 4 6 7 7 9 9 9 8 9 9 10 8 5 4 14 17 17 17 17 17 17 16
12 11 9 8 8 6 4 3 3 4 4 4 3 4 3 3 4 5 5 5 5 5 5 5 7 7 7 6 8 9 8 9 8 6 4 8 14 15 15 17 18 18 18
11 10 9 7 8 6 5 5 4 4 4 4 4 5 5 4 5 5 5 5 5 5 6 5 6 6 6 7 8 9 7 8 7 7 6 5 7 13 16 17 18 18 19
9 9 9 9 8 6 5 4 4 4 4 3 3 4 5 5 5 4 4 4 4 4 5 5 6 6 6 6 6 7 7 6 8 7 7 6 5 7 13 19 19 18 20
8 7 6 6 7 7 6 4 4 3 3 2 2 3 4 5 5 4 3 3 3 3 4 6 6 5 6 6 6 7 7 7 8 9 9 9 8 8 8 14 21 20 22
6 6 5 5 5 6 5 5 4 4 4 3 2 3 4 4 5 4 3 3 3 2 3 4 5 5 5 5 8 8 7 8 7 8 9 9 9 12 12 11 11 15 22
5 4 3 3 4 4 4 5 4 4 4 3 1 3 3 3 4 3 3 3 2 2 2 3 3 4 4 4 4 5 6 9 9 8 8 8 10 12 12 11 9 9 10
4 2 1 3 4 4 4 5 4 4 4 4 2 1 1 2 3 4 3 3 3 2 2 2 2 2 3 3 3 3 3 6 7 10 8 8 9 8 10 12 11 10 8
1 0 2 2 2 4 5 5 6 5 5 4 4 2 2 3 3 2 3 3 3 3 2 2 2 1 3 3 3 3 3 3 3 4 8 7 7 6 6 7 10 11 10
2 2 2 2 3 3 4 6 8 8 7 7 5 4 5 5 5 3 2 2 3 3 3 3 2 2 2 3 3 4 4 2 1 1 2 5 7 6 5 5 8 9 9
4 4 3 3 3 4 5 6 7 7 7 6 7 8 8 7 6 5 3 2 2 2 2 3 3 3 2 2 3 3 4 4 3 2 3 3 3 5 4 4 3 4 7
4 4 4 4 4 4 5 6 6 7 7 8 9 9 8 5 4 4 3 1 1 2 2 3 3 4 3 3 3 3 3 3 4 4 3 4 4 4 6 4 3 3 4
Wind_Direction
119 130 135 131 128 124 123 128 138 144 146 143 139 136 131 128 125 122 119 118 118 119 120 121 120 113 102 94 90 88 88 88 89 91 91 91 90 90 91 98 112 100 105
121 130 134 132 130 127 125 128 136 145 149 148 145 143 141 139 138 136 132 131 131 130 126 125 123 120 113 107 104 103 103 104 107 111 114 107 99 91 78 75 103 108 109
120 130 135 134 134 132 129 129 134 144 151 152 150 149 148 148 149 147 146 146 145 142 138 135 131 128 123 119 118 118 120 125 134 144 155 132 114 98 85 90 103 110 111
125 137 137 138 138 136 132 132 137 144 151 154 155 154 155 156 158 159 159 160 162 157 151 145 140 136 133 131 133 136 143 154 171 191 209 152 129 112 103 103 110 114 115
127 131 132 143 141 140 139 139 143 148 152 157 158 159 160 162 165 169 171 173 175 173 166 158 152 147 146 147 150 155 167 187 210 236 243 107 109 127 121 118 119 121 122
130 131 138 144 144 145 146 147 149 153 157 162 165 166 169 172 175 179 181 184 186 186 179 173 166 161 161 165 169 174 189 212 232 234 215 134 123 139 135 133 131 130 131
135 130 141 145 146 149 151 155 159 163 167 170 174 177 181 184 187 190 192 193 194 194 188 180 175 173 175 178 184 190 204 226 248 260 193 133 135 146 146 147 145 142 141
130 130 138 145 149 153 157 162 167 173 178 183 187 190 195 200 204 206 204 201 202 201 195 189 187 186 187 188 193 202 213 235 236 248 211 143 146 155 155 158 160 159 157
128 130 143 149 153 159 166 173 177 183 189 196 201 205 209 213 216 218 215 213 210 206 201 198 196 196 196 197 200 207 218 233 267 273 237 148 156 160 162 168 174 175 173
126 134 149 157 156 167 175 184 187 192 197 205 212 216 219 223 225 225 223 219 217 213 210 209 207 205 204 204 207 210 218 233 248 258 250 161 162 164 167 173 181 186 185
116 130 146 150 156 177 181 176 185 197 205 209 216 221 224 228 225 218 223 218 214 215 216 215 214 212 210 211 214 215 216 227 233 239 243 170 168 169 171 175 184 193 194
120 109 97 117 140 168 174 152 182 196 196 206 216 209 211 228 243 241 216 213 214 214 216 218 218 218 215 218 214 213 215 221 242 239 216 167 170 174 175 178 185 195 200
110 80 80 72 75 53 46 108 190 207 187 201 223 220 211 225 240 251 242 205 210 214 217 218 218 219 218 220 215 197 212 222 222 233 193 168 172 177 179 181 187 196 203
73 66 51 49 49 38 26 3 324 316 284 219 211 223 227 231 254 265 267 237 204 208 211 220 214 215 220 222 224 207 206 218 230 226 182 174 178 183 184 186 191 198 204
57 53 47 46 45 33 20 343 340 330 327 318 314 279 262 255 260 270 272 271 261 241 219 217 220 219 218 221 225 220 215 216 225 226 182 184 189 191 191 194 199 204 207
51 46 39 43 40 24 1 340 316 315 323 318 337 342 333 303 281 271 271 268 265 265 261 239 233 231 226 225 226 228 223 220 221 222 207 193 196 198 202 204 206 209 210
52 43 27 49 39 23 5 353 339 337 346 346 352 342 339 324 305 289 276 270 266 270 273 271 258 244 231 229 228 230 228 227 221 215 219 209 202 209 213 214 212 211 212
61 55 39 33 29 15 10 352 340 344 353 345 350 348 350 341 326 308 295 288 286 283 276 268 257 255 249 240 233 233 229 222 224 215 213 213 212 219 219 221 216 214 213
70 64 59 46 26 3 1 354 349 347 347 334 10 16 0 347 343 328 312 305 295 280 279 273 256 244 247 248 244 234 228 223 216 219 213 213 214 220 225 218 214 215 216
84 67 48 50 38 358 5 350 353 352 354 340 16 43 10 355 354 337 309 312 309 298 300 288 277 263 246 240 244 242 223 223 215 213 211 210 209 214 221 218 204 215 217
98 86 61 36 34 359 12 346 335 335 337 315 319 66 24 5 348 321 321 311 300 285 295 305 276 269 251 240 235 248 241 223 214 209 208 209 209 212 212 207 197 201 207
111 102 128 44 28 357 5 319 302 322 313 293 331 23 360 8 339 332 334 312 309 294 288 290 274 275 278 255 234 237 246 232 220 210 198 204 213 209 208 202 196 194 193
110 53 34 40 7 7 345 318 331 324 310 316 335 322 348 334 303 294 313 319 321 309 301 286 266 259 276 276 250 234 237 236 233 210 198 198 197 202 205 200 195 192 192
343 354 35 29 15 0 341 336 331 316 311 321 323 329 330 312 291 275 264 300 319 315 317 302 317 283 272 282 293 277 280 308 294 308 215 201 188 195 212 212 200 186 186
341 348 4 14 12 360 347 329 322 316 322 321 321 314 308 294 268 258 240 231 277 292 318 325 324 306 276 263 272 290 298 291 250 231 232 218 191 186 196 214 205 174 177
333 341 353 2 357 354 340 326 315 315 314 311 302 292 289 286 285 279 271 224 256 297 314 308 310 302 288 272 266 264 274 281 274 255 232 208 194 198 184 188 188 173 165